Home   Weather   Aqtobe   Past weeks

Flag for Kazakhstan Past Weather in Aqtobe, Kazakhstan — Yesterday and Last 2 Weeks

Now
32 °F

Mostly cloudy.


Feels Like: 19 °F
Forecast: 28 / 30 °F
Wind: 22 mph from Southwest

Location: Aktjubinsk

Current Time: Feb 20, 2017 at 11:40:18 pm

Latest Report: Feb 20, 2017 at 11:00 pm


Visibility: N/A

Pressure: 30.07 "Hg

Humidity: 87%

Dew Point: 28 °F

Location of AqtobeLocation

Past Weather in Aqtobe — Graph

°F

Aqtobe Temperature Yesterday

Maximum temperature yesterday: 32 °F (at 9:30 pm)
Minimum temperature yesterday: 0 °F (at 12:00 am)
Average temperature yesterday: 17 °F

High & Low Weather Summary for the Past Weeks

 TemperatureHumidityPressure
High34 °F (Feb 20, 3:00 pm)100% (Feb 7, 2:00 am)30.57 "Hg (Feb 7, 2:00 am)
Low-29 °F (Feb 10, 4:00 am)60% (Feb 16, 7:00 am)29.92 "Hg (Feb 19, 2:00 pm)
Average3 °F83%30.20 "Hg
* Reported Feb 5 10:00 pm — Feb 20 10:30 pm, Aqtobe, Weather by CustomWeather, © 2017

Note: Actual official high and low records may vary slightly from our data, if they occured in-between our weather recording intervals... More about our weather records

Advertising

Aqtobe Weather History for the Previous 24 Hours

Scroll right to see more
 ConditionsComfort  
Time TempWeatherWind HumidityBarometerVisibility
10:30 pm
Mon, Feb 20
32 °FLight snow. Mostly cloudy.24 mph87%30.07 "Hg5 mi
10:00 pm32 °FLight snow. Low clouds.24 mph87%30.07 "Hg5 mi
9:30 pm30 °FLight snow. Low clouds.26 mph93%30.07 "Hg5 mi
9:00 pm30 °FLight snow. Low clouds.24 mph93%30.07 "Hg5 mi
8:30 pm30 °FLight snow. Low clouds.24 mph93%30.07 "Hg5 mi
8:00 pm30 °FLight snow. Low clouds.22 mph93%30.07 "Hg5 mi
7:30 pm30 °FIcy mix. Mostly cloudy.24 mph100%30.07 "Hg4 mi
7:00 pm32 °FLight rain. Mostly cloudy.29 mph93%30.07 "Hg3 mi
6:30 pm32 °FLight rain. More clouds than sun.29 mph93%30.07 "Hg4 mi
6:00 pm32 °FLight rain. More clouds than sun.33 mph93%30.04 "Hg3 mi
5:30 pm32 °FLight rain. More clouds than sun.31 mph93%30.07 "Hg3 mi
5:00 pm32 °FLight rain. More clouds than sun.33 mph93%30.04 "Hg3 mi
4:30 pm32 °FLight rain. More clouds than sun.33 mph93%30.07 "Hg3 mi
4:00 pm32 °FLight rain. Ice fog.38 mph93%30.07 "Hg2 mi
3:30 pm32 °FLight snow. More clouds than sun.36 mph93%30.07 "Hg4 mi
3:00 pm34 °FMore clouds than sun.33 mph87%30.07 "HgN/A
2:30 pm32 °FMore clouds than sun.29 mph93%30.09 "HgN/A
2:00 pm32 °FMore clouds than sun.29 mph93%30.09 "HgN/A
1:30 pm32 °FMore clouds than sun.24 mph93%30.09 "HgN/A
1:00 pm32 °FMore clouds than sun.22 mph93%30.12 "HgN/A
12:30 pm32 °FLight freezing rain. Low clouds.17 mph87%30.12 "Hg4 mi
12:00 pm30 °FLight snow. Ice fog.17 mph93%30.15 "Hg3 mi
11:30 am30 °FLight snow. Mostly cloudy.17 mph93%30.15 "Hg3 mi
11:00 am30 °FLight snow. More clouds than sun.15 mph86%30.15 "HgN/A
10:30 am30 °FMore clouds than sun.20 mph86%30.15 "HgN/A
10:00 am30 °FMore clouds than sun.20 mph93%30.15 "HgN/A
9:30 am30 °FLow clouds.20 mph93%30.15 "Hg6 mi
9:00 am30 °FLight freezing rain. Ice fog.17 mph93%30.15 "Hg3 mi
8:30 am30 °FMostly cloudy.17 mph93%30.15 "Hg6 mi
8:00 am30 °FMostly cloudy.17 mph93%30.15 "Hg6 mi
7:30 am30 °FIce fog.17 mph93%30.15 "Hg2 mi
7:00 am30 °FLow clouds.15 mph93%30.15 "HgN/A
6:30 am30 °FLow clouds.13 mph93%30.15 "HgN/A
6:00 am30 °FLow clouds.15 mph93%30.15 "HgN/A
5:30 am30 °FOvercast.13 mph93%30.15 "HgN/A
5:00 am28 °FOvercast.10 mph93%30.15 "HgN/A
4:30 am30 °FLow clouds.10 mph86%30.15 "HgN/A
4:00 am28 °FLow clouds.10 mph93%30.15 "HgN/A
3:30 am28 °FOvercast.10 mph93%30.12 "HgN/A
3:00 am28 °FLow clouds.15 mph93%30.12 "HgN/A
2:30 am28 °FLow clouds.13 mph93%30.12 "HgN/A
2:00 am30 °FLow clouds.15 mph86%30.12 "HgN/A
1:30 am30 °FOvercast.17 mph93%30.12 "HgN/A
1:00 am30 °FOvercast.20 mph93%30.09 "HgN/A
12:30 am30 °FOvercast.15 mph93%30.09 "HgN/A
12:00 am32 °FLow clouds.20 mph87%30.07 "HgN/A
11:30 pm
Sun, Feb 19
32 °FOvercast.20 mph93%30.07 "HgN/A
11:00 pm32 °FMostly cloudy.17 mph93%30.07 "HgN/A
Weather by CustomWeather, © 2017

See weather overviewHow to use our weather pages